| time (UTC) | temp C | wind direction | speed KPH | gust KPH | rain 1hr cm | rain 24hr cm | rain mn cm | humidity % | barometer mb |
| 20260504050007 | 13 | 256 | 1.6 | 6.4 | 0.00 | 0.03 | 0.00 | 70 | 1003.3 |
| 20260504044509 | 13 | 269 | 0.0 | 4.8 | 0.00 | 0.03 | 0.03 | 70 | 1003.3 |
| 20260504043008 | 13 | 234 | 1.6 | 9.7 | 0.00 | 0.03 | 0.03 | 69 | 1003.2 |
| 20260504041503 | 13 | 247 | 1.6 | 8.0 | 0.00 | 0.03 | 0.03 | 68 | 1003.2 |
| 20260504040003 | 13 | 259 | 3.2 | 11.3 | 0.00 | 0.03 | 0.03 | 67 | 1003.1 |
| 20260504034501 | 14 | 248 | 3.2 | 8.0 | 0.00 | 0.03 | 0.03 | 66 | 1003.2 |
| 20260504033100 | 14 | 238 | 3.2 | 8.0 | 0.00 | 0.03 | 0.03 | 65 | 1003.3 |
| 20260504033001 | 14 | 243 | 1.6 | 8.0 | 0.00 | 0.03 | 0.03 | 65 | 1003.3 |
| 20260504031600 | 15 | 230 | 3.2 | 8.0 | 0.00 | 0.03 | 0.03 | 64 | 1003.3 |
| 20260504030121 | 15 | 248 | 4.8 | 11.3 | 0.00 | 0.03 | 0.03 | 63 | 1003.3 |
| 20260504024601 | 15 | 250 | 4.8 | 11.3 | 0.00 | 0.03 | 0.03 | 62 | 1003.4 |
| 20260504023057 | 16 | 236 | 4.8 | 11.3 | 0.00 | 0.03 | 0.03 | 61 | 1003.4 |
| 20260504021558 | 16 | 273 | 4.8 | 9.7 | 0.00 | 0.03 | 0.03 | 60 | 1003.3 |
| 20260504020107 | 16 | 248 | 4.8 | 8.0 | 0.00 | 0.03 | 0.03 | 58 | 1003.2 |
| 20260504014604 | 16 | 241 | 3.2 | 8.0 | 0.00 | 0.03 | 0.03 | 57 | 1003.2 |
| 20260504013057 | 17 | 256 | 3.2 | 6.4 | 0.00 | 0.03 | 0.03 | 56 | 1003.0 |
| 20260504011555 | 17 | 272 | 3.2 | 8.0 | 0.00 | 0.03 | 0.03 | 55 | 1003.0 |
| 20260504010055 | 17 | 283 | 3.2 | 8.0 | 0.00 | 0.03 | 0.03 | 55 | 1002.7 |
| 20260504004554 | 18 | 237 | 3.2 | 9.7 | 0.00 | 0.03 | 0.03 | 53 | 1002.6 |
| 20260504003054 | 18 | 258 | 3.2 | 9.7 | 0.00 | 0.03 | 0.03 | 52 | 1002.6 |
| 20260504001604 | 19 | 266 | 4.8 | 12.9 | 0.00 | 0.03 | 0.03 | 50 | 1002.7 |
| 20260504000055 | 19 | 263 | 8.0 | 14.5 | 0.00 | 0.03 | 0.03 | 49 | 1002.7 |
| 20260503234547 | 20 | 248 | 8.0 | 19.3 | 0.00 | 0.03 | 0.03 | 50 | 1002.8 |
| 20260503233046 | 20 | 261 | 14.5 | 22.5 | 0.00 | 0.03 | 0.03 | 47 | 1002.8 |
| 20260503231551 | 20 | 256 | 12.9 | 22.5 | 0.00 | 0.03 | 0.03 | 47 | 1002.9 |
| 20260503230042 | 20 | 308 | 11.3 | 24.1 | 0.00 | 0.03 | 0.03 | 47 | 1003.1 |
| 20260503224541 | 20 | 270 | 14.5 | 27.4 | 0.00 | 0.03 | 0.03 | 48 | 1003.2 |
| 20260503223040 | 20 | 273 | 16.1 | 25.7 | 0.00 | 0.03 | 0.03 | 46 | 1003.4 |
| 20260503221544 | 20 | 227 | 14.5 | 24.1 | 0.00 | 0.03 | 0.03 | 46 | 1003.4 |
| 20260503220037 | 20 | 277 | 14.5 | 32.2 | 0.00 | 0.03 | 0.03 | 46 | 1003.4 |
| 20260503214539 | 20 | 256 | 17.7 | 32.2 | 0.00 | 0.03 | 0.03 | 47 | 1003.4 |
| 20260503213042 | 20 | 252 | 16.1 | 32.2 | 0.00 | 0.03 | 0.03 | 47 | 1003.4 |
| 20260503211535 | 19 | 270 | 17.7 | 27.4 | 0.00 | 0.03 | 0.03 | 47 | 1003.6 |
| 20260503210029 | 19 | 283 | 16.1 | 29.0 | 0.00 | 0.03 | 0.03 | 49 | 1003.9 |
| 20260503204528 | 18 | 278 | 22.5 | 37.0 | 0.00 | 0.03 | 0.03 | 47 | 1004.3 |
| 20260503203023 | 18 | 241 | 17.7 | 37.0 | 0.00 | 0.03 | 0.03 | 47 | 1004.6 |
| 20260503201520 | 18 | 259 | 22.5 | 38.6 | 0.00 | 0.03 | 0.03 | 48 | 1004.9 |
| 20260503200019 | 17 | 258 | 20.9 | 37.0 | 0.00 | 0.03 | 0.03 | 50 | 1005.1 |
| 20260503194516 | 17 | 280 | 22.5 | 35.4 | 0.00 | 0.03 | 0.03 | 47 | 1005.6 |
| 20260503193012 | 16 | 231 | 20.9 | 45.1 | 0.00 | 0.03 | 0.03 | 54 | 1005.8 |
| 20260503191510 | 16 | 280 | 19.3 | 35.4 | 0.00 | 0.03 | 0.03 | 57 | 1006.2 |
| 20260503190024 | 15 | 241 | 17.7 | 40.2 | 0.00 | 0.03 | 0.03 | 59 | 1006.4 |
| 20260503184508 | 15 | 236 | 12.9 | 27.4 | 0.00 | 0.03 | 0.03 | 58 | 1006.4 |
| 20260503183008 | 15 | 291 | 11.3 | 29.0 | 0.00 | 0.03 | 0.03 | 57 | 1006.3 |
| 20260503181501 | 15 | 226 | 12.9 | 33.8 | 0.00 | 0.03 | 0.03 | 54 | 1006.5 |
| 20260503174558 | 15 | 139 | 12.9 | 35.4 | 0.00 | 0.03 | 0.03 | 54 | 1007.2 |
| 20260503173112 | 14 | 224 | 12.9 | 29.0 | 0.00 | 0.03 | 0.03 | 59 | 1007.4 |
| 20260503171553 | 13 | 148 | 14.5 | 33.8 | 0.00 | 0.03 | 0.03 | 61 | 1008.1 |
| 20260503110109 | 8 | 255 | 8.0 | 24.1 | 0.00 | 0.03 | 0.00 | 63 | 1011.3 |
| 20260503081544 | 7 | 248 | 4.8 | 12.9 | 0.00 | 0.03 | 0.00 | 59 | 1012.4 |